Date String (YYYY-MM-DD hh:mm:ss) UTC,Instrument flags,absolute air pressure of the measurement (hPa),sample flow rate (lpm),inlet stack bypass flow (lpm),air temperature of the measurement (°C),ambient temperature measured by the external sensor (°C),aerosol sample conditioner tube jacket temperature (°C),OPC LED temperature (°C),internal box temperature (°C),relative humidity of the measurement (%),span deviation,mass concentration of particles derived from Lorenz-Mie calculation of OPC scattering (μg/m³),mass concentration of particles derived from Lorenz-Mie calculation of OPC scattering (μg/m³),mass concentration of particles derived from Lorenz-Mie calculation of OPC scattering (μg/m³)
DateTimeUTC,F1_M11,P_M11,Q1_M11,Q2_M11,T1_M11,T2_M11,T3_M11,T4_M11,T5_M11,U1_M11,ZSPAN_M11,X0_M11,X2_M11,X1_M11
2024-06-09 07:00:00,SystemResetWarning,0830.5,5.00,000.00,030.8,030.1,000.0,039.3,032.5,027.1,0000.0,0009.44,0003.96,0003.30
2024-06-09 07:01:00,SystemResetWarning,0830.5,5.00,000.00,030.8,030.1,000.0,039.3,032.5,027.1,0000.0,0009.62,0004.03,0003.35
2024-06-09 07:02:00,SystemResetWarning,0830.7,5.00,000.00,030.8,030.1,000.0,039.3,032.5,027.1,0000.0,0009.85,0004.12,0003.39
2024-06-09 07:03:00,SystemResetWarning,0830.5,4.99,000.00,030.8,030.1,000.0,039.3,032.5,027.1,0000.0,0009.80,0004.15,0003.43
2024-06-09 07:04:00,SystemResetWarning,0830.6,4.99,000.00,030.8,030.1,000.0,039.3,032.5,027.1,0000.0,0008.74,0004.19,0003.49
2024-06-09 07:05:00,SystemResetWarning,0830.5,5.00,000.00,030.8,030.1,000.0,039.3,032.5,027.0,0000.0,0008.42,0004.22,0003.54
2024-06-09 07:06:00,SystemResetWarning,0830.4,5.00,000.00,030.8,030.1,000.0,039.3,032.4,027.0,0000.0,0008.59,0004.33,0003.59
2024-06-09 07:07:00,SystemResetWarning,0830.5,5.01,000.00,030.8,030.0,000.0,039.3,032.4,026.9,0000.0,0008.65,0004.39,0003.63
2024-06-09 07:08:00,SystemResetWarning,0830.5,5.01,000.00,030.8,030.0,000.0,039.3,032.5,027.0,0000.0,0008.65,0004.40,0003.66
2024-06-09 07:09:00,SystemResetWarning,0830.5,5.00,000.00,030.8,030.0,000.0,039.3,032.5,027.0,0000.0,0008.42,0004.38,0003.66
2024-06-09 07:10:00,SystemResetWarning,0830.4,5.00,000.00,030.8,030.1,000.0,039.3,032.5,027.0,0000.0,0008.36,0004.40,0003.65
2024-06-09 07:11:00,SystemResetWarning,0830.4,5.00,000.00,030.8,030.1,000.0,039.2,032.5,027.0,0000.0,0008.47,0004.39,0003.65
2024-06-09 07:12:00,SystemResetWarning,0830.4,5.00,000.00,030.8,030.1,000.0,039.2,032.5,027.0,0000.0,0008.48,0004.40,0003.65
2024-06-09 07:13:00,SystemResetWarning,0830.4,4.99,000.00,030.8,030.1,000.0,039.2,032.5,027.0,0000.0,0008.72,0004.35,0003.65
2024-06-09 07:14:00,SystemResetWarning,0830.4,4.99,000.00,030.8,030.1,000.0,039.2,032.5,027.0,0000.0,0008.76,0004.34,0003.66
2024-06-09 07:15:00,SystemResetWarning,0830.5,5.00,000.00,030.8,030.1,000.0,039.2,032.5,027.0,0000.0,0008.82,0004.35,0003.67
2024-06-09 07:16:00,SystemResetWarning,0830.5,5.00,000.00,030.8,030.0,000.0,039.2,032.4,027.0,0000.0,0008.79,0004.35,0003.67
2024-06-09 07:17:00,SystemResetWarning,0830.5,5.01,000.00,030.8,030.1,000.0,039.2,032.5,027.0,0000.0,0009.16,0004.31,0003.67
2024-06-09 07:18:00,SystemResetWarning,0830.5,5.01,000.00,030.8,030.1,000.0,039.2,032.5,026.9,0000.0,0009.23,0004.30,0003.67
2024-06-09 07:19:00,SystemResetWarning,0830.4,5.00,000.00,030.8,030.1,000.0,039.2,032.5,026.8,0000.0,0009.17,0004.29,0003.68
2024-06-09 07:20:00,SystemResetWarning,0830.5,4.99,000.00,030.8,030.1,000.0,039.2,032.4,026.9,0000.0,0009.11,0004.30,0003.69
2024-06-09 07:21:00,SystemResetWarning,0830.5,5.00,000.00,030.8,030.1,000.0,039.2,032.5,026.8,0000.0,0008.99,0004.27,0003.69
2024-06-09 07:22:00,SystemResetWarning,0830.6,5.00,000.00,030.8,030.0,000.0,039.2,032.5,026.7,0000.0,0008.81,0004.27,0003.70
2024-06-09 07:23:00,SystemResetWarning,0830.5,5.00,000.00,030.8,030.0,000.0,039.2,032.5,026.7,0000.0,0008.98,0004.29,0003.70
2024-06-09 07:24:00,SystemResetWarning,0830.5,5.00,000.00,030.8,030.0,000.0,039.2,032.5,026.8,0000.0,0008.71,0004.28,0003.70
2024-06-09 07:25:00,SystemResetWarning,0830.4,5.02,000.00,030.8,030.0,000.0,039.2,032.5,026.7,0000.0,0008.54,0004.30,0003.69
2024-06-09 07:26:00,SystemResetWarning,0830.4,5.00,000.00,030.8,030.0,000.0,039.2,032.4,026.8,0000.0,0008.54,0004.30,0003.69
2024-06-09 07:27:00,SystemResetWarning,0830.6,4.99,000.00,030.8,030.0,000.0,039.2,032.4,026.8,0000.0,0008.53,0004.29,0003.69
2024-06-09 07:28:00,SystemResetWarning,0830.8,4.99,000.00,030.8,030.0,000.0,039.2,032.4,026.7,0000.0,0008.16,0004.28,0003.69
2024-06-09 07:29:00,SystemResetWarning,0830.5,5.00,000.00,030.8,030.0,000.0,039.2,032.4,026.7,0000.0,0007.88,0004.26,0003.69
2024-06-09 07:30:00,SystemResetWarning,0830.4,5.00,000.00,030.8,030.0,000.0,039.2,032.5,026.7,0000.0,0008.10,0004.27,0003.69
2024-06-09 07:31:00,SystemResetWarning,0830.5,5.01,000.00,030.8,030.0,000.0,039.2,032.5,026.7,0000.0,0008.09,0004.28,0003.69
2024-06-09 07:32:00,SystemResetWarning,0830.5,5.00,000.00,030.8,030.0,000.0,039.2,032.4,026.7,0000.0,0008.11,0004.29,0003.70
2024-06-09 07:33:00,SystemResetWarning,0830.4,5.00,000.00,030.8,030.0,000.0,039.2,032.4,026.7,0000.0,0008.16,0004.32,0003.71
2024-06-09 07:34:00,SystemResetWarning,0830.5,5.00,000.00,030.8,030.0,000.0,039.2,032.4,026.7,0000.0,0008.03,0004.34,0003.72
2024-06-09 07:35:00,SystemResetWarning,0830.6,5.00,000.00,030.8,030.0,000.0,039.2,032.4,026.6,0000.0,0008.04,0004.37,0003.73
2024-06-09 07:36:00,SystemResetWarning,0830.4,5.00,000.00,030.8,030.0,000.0,039.2,032.5,026.6,0000.0,0007.96,0004.32,0003.73
2024-06-09 07:37:00,SystemResetWarning,0830.5,4.99,000.00,030.8,030.0,000.0,039.2,032.4,026.5,0000.0,0008.86,0004.32,0003.73
2024-06-09 07:38:00,SystemResetWarning,0830.4,4.99,000.00,030.8,030.0,000.0,039.2,032.5,026.5,0000.0,0008.95,0004.35,0003.72
2024-06-09 07:39:00,SystemResetWarning,0830.5,5.00,000.00,030.8,030.0,000.0,039.2,032.4,026.6,0000.0,0009.12,0004.37,0003.72
2024-06-09 07:40:00,SystemResetWarning,0830.6,5.01,000.00,030.8,030.0,000.0,039.2,032.4,026.6,0000.0,0009.82,0004.39,0003.73
2024-06-09 07:41:00,SystemResetWarning,0830.5,5.01,000.00,030.8,030.0,000.0,039.2,032.4,026.5,0000.0,0009.77,0004.38,0003.73
2024-06-09 07:42:00,SystemResetWarning,0830.4,5.01,000.00,030.8,030.0,000.0,039.2,032.4,026.5,0000.0,0009.81,0004.39,0003.74
2024-06-09 07:43:00,SystemResetWarning,0830.4,5.00,000.00,030.8,030.0,000.0,039.2,032.4,026.5,0000.0,0009.82,0004.40,0003.74
2024-06-09 07:44:00,SystemResetWarning,0830.4,4.99,000.00,030.7,030.0,000.0,039.2,032.4,026.5,0000.0,0009.75,0004.36,0003.73
2024-06-09 07:45:00,SystemResetWarning,0830.4,4.99,000.00,030.7,030.0,000.0,039.2,032.4,026.5,0000.0,0009.62,0004.30,0003.72
2024-06-09 07:46:00,SystemResetWarning,0830.4,4.99,000.00,030.7,030.0,000.0,039.2,032.4,026.4,0000.0,0009.51,0004.29,0003.72
2024-06-09 07:47:00,SystemResetWarning,0830.3,5.00,000.00,030.7,029.9,000.0,039.2,032.4,026.4,0000.0,0009.62,0004.31,0003.73
2024-06-09 07:48:00,SystemResetWarning,0830.4,5.01,000.00,030.7,029.9,000.0,039.2,032.4,026.4,0000.0,0009.19,0004.30,0003.73
2024-06-09 07:49:00,SystemResetWarning,0830.4,5.01,000.00,030.7,029.9,000.0,039.2,032.4,026.4,0000.0,0009.09,0004.25,0003.73
2024-06-09 07:50:00,SystemResetWarning,0830.4,5.00,000.00,030.7,030.0,000.0,039.2,032.4,026.4,0000.0,0009.11,0004.23,0003.72
2024-06-09 07:51:00,SystemResetWarning,0830.4,4.99,000.00,030.7,030.0,000.0,039.2,032.4,026.4,0000.0,0009.07,0004.23,0003.72
2024-06-09 07:52:00,SystemResetWarning,0830.4,4.99,000.00,030.7,030.0,000.0,039.2,032.4,026.3,0000.0,0009.06,0004.24,0003.73
2024-06-09 07:53:00,SystemResetWarning,0830.4,5.00,000.00,030.7,030.0,000.0,039.2,032.4,026.3,0000.0,0009.04,0004.24,0003.73
2024-06-09 07:54:00,SystemResetWarning,0830.4,5.00,000.00,030.7,030.0,000.0,039.2,032.4,026.3,0000.0,0008.97,0004.21,0003.71
2024-06-09 07:55:00,SystemResetWarning,0830.4,5.00,000.00,030.7,030.0,000.0,039.2,032.4,026.3,0000.0,0008.94,0004.20,0003.72
2024-06-09 07:56:00,SystemResetWarning,0830.4,5.01,000.00,030.7,030.0,000.0,039.2,032.4,026.3,0000.0,0008.98,0004.22,0003.72
2024-06-09 07:57:00,SystemResetWarning,0830.3,5.00,000.00,030.7,030.0,000.0,039.2,032.4,026.3,0000.0,0008.91,0004.17,0003.70
2024-06-09 07:58:00,SystemResetWarning,0830.3,5.00,000.00,030.7,030.0,000.0,039.2,032.4,026.2,0000.0,0008.90,0004.15,0003.69
2024-06-09 07:59:00,SystemResetWarning,0830.3,5.00,000.00,030.7,030.0,000.0,039.2,032.4,026.2,0000.0,0008.53,0004.16,0003.69
